Stations météo

Publicité
Biscarosse, France (7503): Température de l'air & dewpoint: 19.07.2017 10:00:00 - 25.07.2017 10:00:00 (CEST)Biscarosse, France (7503): Température de l'air 5cm: 19.07.2017 10:00:00 - 25.07.2017 10:00:00 (CEST)Biscarosse, France (7503): Température de l'air -20cm & Température de l'air -100cm: 19.07.2017 10:00:00 - 25.07.2017 10:00:00 (CEST)Biscarosse, France (7503): Vitesse du vent & gusts: 19.07.2017 10:00:00 - 25.07.2017 10:00:00 (CEST)Biscarosse, France (7503): Direction du vent: 19.07.2017 10:00:00 - 25.07.2017 10:00:00 (CEST)Biscarosse, France (7503): reduced air pressure: 19.07.2017 10:00:00 - 25.07.2017 10:00:00 (CEST)Biscarosse, France (7503): visibility: 19.07.2017 10:00:00 - 25.07.2017 10:00:00 (CEST)Biscarosse, France (7503): Ensoleillement: 19.07.2017 10:00:00 - 25.07.2017 10:00:00 (CEST)Biscarosse, France (7503): Quantités de précipitations: 19.07.2017 10:00:00 - 25.07.2017 10:00:00 (CEST)
Date & Time tt [°C] td [°C] tt 5cm [°C] tt -20cm [°C] tt -100cm [°C] ff [km/h] ff [knt] fx [km/h] fx [knt] dd ppp [hPa] vv [km] sd [min] rr [mm]
25.07.2017 10:00:00 20,4 14,5 20,9 25,1 25,5 26 14 32 17 WNW 1021,2 20 5 0,0
25.07.2017 09:00:00 20,2 13,9 17,5 25,3 25,5 23 12 32 17 NW 1020,9 25 20 0,0
25.07.2017 08:00:00 18,6 14,9 17,0 25,6 25,5 29 16 35 19 W 1020,8 18 0 0,2
25.07.2017 07:00:00 18,9 14,6 18,1 25,8 25,5 27 15 33 18 W 1020,8 20 0 0,0
25.07.2017 06:00:00 18,8 14,3 18,2 26,2 25,5 26 14 34 18 NW 1020,9 20 0 0,0
25.07.2017 05:00:00 18,8 14,9 17,3 26,6 25,5 29 16 36 19 W 1021,0 20 0 0,0
25.07.2017 04:00:00 18,6 14,5 16,7 26,8 25,5 29 15 39 21 SW 1021,4 20 0 0,0
25.07.2017 03:00:00 17,9 15,5 16,8 27,1 25,5 30 16 37 20 W 1022,0 14 0 0,2
25.07.2017 02:00:00 18,4 14,7 16,6 27,4 25,5 31 17 36 19 WSW 1022,3 20 0 0,4
25.07.2017 01:00:00 19,1 14,4 18,2 27,8 25,5 26 14 35 19 W 1022,9 20 0 0,0
25.07.2017 00:00:00 19,1 14,1 18,5 28,0 25,5 26 14 32 18 W 1023,0 20 0 0,0
24.07.2017 23:00:00 19,2 14,5 18,4 28,3 25,5 25 14 32 17 WNW 1023,1 20 0 0,0
24.07.2017 22:00:00 19,0 14,3 18,3 28,4 25,5 26 14 33 18 W 1022,7 20 6 0,0
24.07.2017 21:00:00 19,5 13,7 19,5 28,5 25,5 26 14 34 18 WNW 1022,5 20 38 0,0
24.07.2017 20:00:00 20,0 13,7 20,7 28,5 25,5 28 15 45 24 WNW 1022,4 20 30 0,0
24.07.2017 19:00:00 20,2 13,2 22,0 28,2 25,6 26 14 35 19 WNW 1022,0 20 26 0,0
24.07.2017 18:00:00 21,1 13,5 22,9 27,9 25,5 28 15 33 18 W 1021,9 20 24 0,0
24.07.2017 17:00:00 20,9 13,3 24,2 27,3 25,5 27 15 37 20 W 1021,9 20 19 0,0
24.07.2017 16:00:00 22,3 13,6 28,3 26,8 25,5 31 17 40 21 WSW 1021,8 20 60 0,0
24.07.2017 15:00:00 21,7 12,8 25,1 26,3 25,5 30 16 39 21 WSW 1021,7 25 52 0,0
24.07.2017 14:00:00 21,6 14,0 24,6 26,1 25,5 29 16 39 21 W 1021,3 25 27 0,0
24.07.2017 13:00:00 21,0 14,2 23,9 26,0 25,6 32 17 43 23 W 1021,1 25 17 0,0
24.07.2017 12:00:00 20,1 14,9 20,9 26,0 25,5 34 18 44 24 WSW 1020,8 19 6 0,0
24.07.2017 11:00:00 19,1 16,5 20,2 26,1 25,5 35 19 50 27 WNW 1020,2 12 5 0,0
24.07.2017 10:00:00 20,1 16,7 20,5 26,4 25,5 33 18 44 24 WSW 1019,6 19 0 0,0
24.07.2017 09:00:00 20,1 16,5 18,3 26,7 25,5 36 19 48 26 WSW 1018,9 20 6 0,0
24.07.2017 08:00:00 19,2 17,2 17,3 27,1 25,5 33 18 56 30 WSW 1018,5 20 0 0,4
24.07.2017 07:00:00 19,2 16,4 18,0 27,5 25,5 36 20 46 25 WSW 1018,3 19 0 0,0
24.07.2017 06:00:00 18,7 16,8 17,3 27,9 25,4 33 18 63 34 WSW 1018,1 18 0 0,8
24.07.2017 05:00:00 19,1 16,9 18,7 28,2 25,4 39 21 49 26 WSW 1018,0 16 0 0,0
24.07.2017 04:00:00 19,6 17,9 18,8 28,6 25,4 37 20 53 29 W 1018,0 15 0 0,0
24.07.2017 03:00:00 19,7 18,4 19,0 29,0 25,4 41 22 55 30 WSW 1018,1 20 0 0,0
24.07.2017 02:00:00 19,3 18,3 18,7 29,4 25,4 34 18 50 27 WSW 1018,5 7 0 0,6
24.07.2017 01:00:00 19,3 17,6 18,7 29,7 25,3 36 19 47 25 WSW 1019,0 3,5 0 0,4
24.07.2017 00:00:00 20,1 16,9 19,8 30,0 25,4 36 19 46 25 WSW 1019,4 20 0 0,0
23.07.2017 23:00:00 20,3 16,5 20,1 30,3 25,4 31 17 41 22 W 1019,7 20 0 0,0
23.07.2017 22:00:00 20,1 16,7 19,3 30,5 25,4 29 15 34 19 WSW 1019,8 19 0 0,0
23.07.2017 21:00:00 20,3 16,3 19,3 30,5 25,4 23 12 29 15 SSW 1019,7 17 0 0,0
23.07.2017 20:00:00 20,8 14,7 22,0 30,4 25,4 18 10 27 14 SW 1020,0 20 23 0,0
23.07.2017 19:00:00 21,6 14,3 23,5 29,9 25,4 22 12 28 15 SW 1020,3 19 53 0,0
23.07.2017 18:00:00 22,1 14,0 28,3 29,3 25,4 22 12 27 15 SW 1020,4 20 60 0,0
23.07.2017 17:00:00 23,2 14,5 31,0 28,6 25,4 21 12 26 14 SW 1020,7 19 60 0,0
23.07.2017 16:00:00 23,0 14,0 29,5 27,9 25,4 18 10 24 13 SW 1021,2 19 60 0,0
23.07.2017 15:00:00 22,7 13,2 27,8 27,2 25,5 21 11 26 14 WSW 1021,7 20 51 0,0
23.07.2017 14:00:00 21,9 14,0 26,8 26,6 25,5 20 11 26 14 W 1021,7 19 45 0,0
23.07.2017 13:00:00 22,1 14,5 24,0 26,1 25,5 23 12 27 14 SW 1021,8 19 24 0,0
23.07.2017 12:00:00 23,1 14,1 23,9 25,7 25,5 17 9 24 13 W 1021,7 20 37 0,0
23.07.2017 11:00:00 21,7 13,6 24,8 25,6 25,5 18 10 29 16 WSW 1021,6 20 46 0,0
23.07.2017 10:00:00 21,2 12,6 21,8 25,6 25,5 23 12 29 16 W 1021,6 20 48 0,0
23.07.2017 09:00:00 20,6 12,6 20,0 25,8 25,5 21 11 29 16 WSW 1021,4 20 31 0,0
23.07.2017 08:00:00 19,3 13,0 18,7 26,0 25,5 22 12 29 16 W 1020,9 20 2 0,0
23.07.2017 07:00:00 19,2 13,1 18,1 26,2 25,5 23 12 29 16 WSW 1020,8 19 0 0,0
23.07.2017 06:00:00 19,2 13,4 18,3 26,5 25,5 22 12 36 19 W 1020,7 18 0 0,0
23.07.2017 05:00:00 19,6 13,1 18,4 26,7 25,5 29 16 36 19 W 1020,5 19 0 0,0
23.07.2017 04:00:00 19,5 12,7 18,4 27,0 25,5 26 14 32 17 WSW 1020,5 19 0 0,0
23.07.2017 03:00:00 19,3 12,8 18,6 27,3 25,5 22 12 30 16 W 1020,7 20 0 0,0
23.07.2017 02:00:00 19,2 13,1 17,9 27,7 25,5 22 12 30 16 W 1020,9 19 0 0,0
23.07.2017 01:00:00 19,2 12,0 18,4 27,9 25,5 26 14 32 18 WSW 1020,7 20 0 0,0
23.07.2017 00:00:00 19,5 12,5 18,7 28,2 25,5 24 13 30 16 W 1020,5 20 0 0,0
22.07.2017 23:00:00 19,7 12,5 19,4 28,5 25,5 26 14 33 18 WSW 1020,3 20 0 0,0
22.07.2017 22:00:00 19,9 13,8 19,8 28,6 25,5 25 13 31 17 SW 1019,5 20 0 0,0
22.07.2017 21:00:00 19,9 13,6 20,0 28,7 25,6 23 13 32 17 SW 1018,7 20 0 0,0
22.07.2017 20:00:00 20,3 14,2 21,2 28,5 25,6 19 11 26 14 W 1018,0 20 11 0,0
22.07.2017 19:00:00 21,2 14,8 22,9 28,2 25,6 18 10 24 13 W 1017,6 20 33 0,0
22.07.2017 18:00:00 22,3 15,2 25,3 27,7 25,6 18 10 33 18 W 1017,3 20 35 0,0
22.07.2017 17:00:00 22,6 15,4 27,1 27,3 25,7 22 12 28 15 WSW 1017,1 20 44 0,0
22.07.2017 16:00:00 22,3 16,3 26,7 26,9 25,7 20 11 27 15 W 1016,7 20 11 0,0
22.07.2017 15:00:00 22,0 15,8 22,4 26,5 25,7 22 12 29 15 WSW 1016,4 20 3 0,0
22.07.2017 14:00:00 21,1 16,5 22,4 26,0 25,7 23 13 29 16 WSW 1016,3 15 6 0,0
22.07.2017 13:00:00 22,8 16,8 25,9 25,5 25,7 22 12 27 14 WSW 1015,9 17 10 0,0
22.07.2017 12:00:00 23,6 15,9 27,9 25,1 25,7 20 11 26 14 WSW 1015,6 16 38 0,0
22.07.2017 11:00:00 22,6 17,1 - - - 16 9 29 16 SSE 1015,2 17 - -
22.07.2017 10:00:00 21,2 17,0 - - - 21 11 28 15 S 1015,0 13 - 0,0
22.07.2017 09:00:00 19,9 16,9 19,7 25,0 25,8 15 8 26 14 SSE 1014,8 12 16 0,0
22.07.2017 08:00:00 18,4 15,6 17,3 25,2 25,8 10 5 16 9 SSE 1014,4 20 12 0,0
22.07.2017 07:00:00 17,4 15,0 16,5 25,5 25,8 10 5 17 9 SE 1014,2 20 0 0,0
22.07.2017 06:00:00 16,7 14,3 16,4 25,7 25,8 8 4 14 8 ESE 1014,2 20 0 0,0
22.07.2017 05:00:00 17,2 14,3 16,7 26,0 25,9 9 5 27 15 ESE 1014,1 20 0 0,0
22.07.2017 04:00:00 18,6 15,1 16,7 26,2 25,9 23 12 29 16 S 1014,2 20 0 0,0
22.07.2017 03:00:00 17,4 14,7 16,5 26,5 25,9 6 3 16 9 SSE 1014,4 19 0 0,0
22.07.2017 02:00:00 17,6 14,1 17,1 26,8 25,9 9 5 28 15 SE 1014,3 20 0 0,0
22.07.2017 01:00:00 18,3 14,0 17,7 27,1 25,9 19 10 26 14 S 1014,6 18 0 0,0
22.07.2017 00:00:00 18,6 14,1 17,9 27,3 25,9 21 11 26 14 WSW 1014,8 20 0 0,0
21.07.2017 23:00:00 18,2 14,3 17,8 27,4 26,0 16 9 20 11 SW 1014,8 20 0 0,0
21.07.2017 22:00:00 18,7 14,4 18,4 27,6 26,0 12 6 16 9 SW 1014,4 20 0 0,0
21.07.2017 21:00:00 19,2 14,0 19,1 27,5 26,0 10 5 16 8 W 1014,2 20 9 0,0
21.07.2017 20:00:00 19,8 13,5 20,5 27,5 26,0 13 7 18 10 WNW 1014,1 20 0 0,0
21.07.2017 19:00:00 21,4 11,4 24,3 27,2 26,1 12 7 16 9 W 1013,9 20 26 0,0
21.07.2017 18:00:00 21,1 12,0 22,8 27,0 26,1 8 4 11 6 WNW 1014,1 20 19 0,0
21.07.2017 17:00:00 20,5 11,9 22,4 26,9 26,1 8 4 12 6 NW 1014,0 20 0 0,0
21.07.2017 16:00:00 20,1 12,1 21,9 26,7 26,1 6 3 10 6 WNW 1014,1 20 0 0,0
21.07.2017 15:00:00 20,3 12,0 23,3 26,4 26,2 10 5 18 10 NW 1014,2 20 0 0,0
21.07.2017 14:00:00 20,8 10,6 23,7 26,2 26,2 6 3 13 7 SE 1014,2 20 0 0,0
21.07.2017 13:00:00 20,5 11,4 23,7 25,9 26,2 6 3 13 7 SE 1014,2 20 0 0,0
21.07.2017 12:00:00 19,5 11,3 22,4 25,9 26,2 5 3 14 8 ESE 1014,4 20 0 0,0
21.07.2017 11:00:00 18,9 11,7 19,6 25,9 26,2 9 5 18 10 ESE 1014,4 20 0 0,0
21.07.2017 10:00:00 17,6 12,3 - - - 11 6 16 9 E 1014,9 19 - 0,0
21.07.2017 09:00:00 16,8 11,9 17,3 26,2 26,2 10 5 19 10 ESE 1014,6 20 0 0,0
21.07.2017 08:00:00 16,3 11,0 16,6 26,4 26,3 9 5 16 8 E 1014,4 20 0 0,0
21.07.2017 07:00:00 16,5 11,8 16,2 26,7 26,3 5 3 9 5 E 1014,4 20 0 0,0
21.07.2017 06:00:00 16,5 11,2 14,6 27,0 26,3 6 4 8 4 ENE 1014,7 20 0 0,0
21.07.2017 05:00:00 16,1 10,8 14,7 27,3 26,3 6 3 6 4 ENE 1014,9 20 0 0,0
21.07.2017 04:00:00 16,5 11,0 15,4 27,6 26,3 6 3 7 4 ENE 1015,1 20 0 0,0
21.07.2017 03:00:00 17,5 11,3 17,2 27,9 26,3 4 2 8 5 ENE 1015,8 20 0 0,0
21.07.2017 02:00:00 17,4 11,4 16,8 28,2 26,3 4 2 5 3 E 1016,5 20 0 0,0
21.07.2017 01:00:00 17,3 11,3 16,3 28,6 26,3 4 2 5 3 ENE 1017,0 20 0 0,0
21.07.2017 00:00:00 16,5 11,0 15,5 29,0 26,3 3 2 6 3 E 1017,4 15 0 0,0
20.07.2017 23:00:00 17,0 10,8 15,8 29,3 26,3 3 1 16 8 NE 1017,6 20 0 0,0
20.07.2017 22:00:00 18,2 10,6 16,9 29,5 26,4 12 7 16 9 NW 1017,4 11 13 0,0
20.07.2017 21:00:00 19,9 10,9 20,2 29,6 26,4 13 7 16 9 NNW 1017,4 20 60 0,0
20.07.2017 20:00:00 21,5 11,5 23,4 29,5 26,4 12 6 16 9 NNW 1017,4 20 51 0,0
20.07.2017 19:00:00 20,7 12,1 23,2 29,2 26,4 13 7 20 11 N 1017,6 20 8 0,0
20.07.2017 18:00:00 21,6 12,4 25,6 28,9 26,4 16 9 21 11 N 1017,8 20 24 0,0
20.07.2017 17:00:00 22,1 13,2 24,6 28,5 26,5 15 8 23 12 N 1017,9 20 20 0,0
20.07.2017 16:00:00 21,3 12,7 25,2 28,2 26,5 17 9 24 13 NNW 1018,0 20 0 0,0
20.07.2017 15:00:00 21,5 12,3 25,3 27,8 26,5 18 10 29 16 NNW 1018,1 25 5 0,0
20.07.2017 14:00:00 21,7 12,0 25,2 27,5 26,5 23 13 33 18 NW 1017,9 20 1 0,0
20.07.2017 13:00:00 21,7 12,3 25,2 27,3 26,5 24 13 33 18 NW 1017,8 25 23 0,0
20.07.2017 12:00:00 21,2 12,6 21,7 27,2 26,5 21 12 27 15 N 1017,7 20 0 0,0
20.07.2017 11:00:00 20,5 14,2 22,0 27,3 26,5 22 12 30 16 NW 1017,7 20 0 0,0
20.07.2017 10:00:00 20,8 14,9 20,7 27,4 26,5 19 10 26 14 NW 1017,4 20 0 0,0
20.07.2017 09:00:00 20,3 14,2 19,9 27,7 26,5 18 10 22 12 NW 1017,1 25 0 0,0
20.07.2017 08:00:00 19,9 13,8 19,2 27,9 26,5 19 10 24 13 WNW 1016,7 20 0 0,0
20.07.2017 07:00:00 19,5 15,2 19,2 28,3 26,5 21 11 30 16 NNW 1016,5 20 0 0,0
20.07.2017 06:00:00 19,8 14,4 18,5 28,5 26,5 19 11 24 13 NW 1016,2 20 0 0,0
20.07.2017 05:00:00 18,8 16,2 17,9 28,9 26,5 7 4 37 20 NW 1016,1 19 0 0,0
20.07.2017 04:00:00 19,2 16,6 18,1 29,2 26,5 29 16 36 19 WSW 1016,2 18 0 0,2
20.07.2017 03:00:00 20,1 15,9 19,8 29,5 26,4 16 9 32 17 WNW 1016,1 19 0 0,0
20.07.2017 02:00:00 20,9 15,9 20,6 29,8 26,5 29 16 37 20 WSW 1016,0 20 0 0,0
20.07.2017 01:00:00 21,0 17,0 20,9 30,1 26,5 30 16 37 20 WSW 1015,3 20 0 0,0
20.07.2017 00:00:00 21,4 17,0 20,9 30,5 26,5 25 14 29 16 SW 1015,2 19 0 0,0
19.07.2017 23:00:00 21,2 17,8 20,2 30,7 26,5 14 8 18 10 W 1014,9 14 0 0,0
19.07.2017 22:00:00 20,8 17,6 20,2 31,0 26,5 15 8 18 10 WNW 1014,6 16 0 0,0
19.07.2017 21:00:00 21,5 17,7 21,6 31,1 26,5 11 6 12 7 W 1014,7 14 42 0,0
19.07.2017 20:00:00 22,9 18,0 24,1 31,1 26,5 9 5 12 7 W 1014,6 20 48 0,0
19.07.2017 19:00:00 22,4 18,0 24,6 31,0 26,5 13 7 17 9 NNW 1013,8 20 17 0,0
19.07.2017 18:00:00 23,0 17,5 26,5 30,8 26,5 15 8 18 10 NNW 1013,6 20 2 0,0
19.07.2017 17:00:00 23,3 17,3 25,9 30,4 26,5 12 7 16 9 NW 1013,5 20 5 0,0
19.07.2017 16:00:00 23,7 17,4 28,5 29,9 26,5 9 5 13 7 W 1013,6 20 39 0,0
19.07.2017 15:00:00 24,2 17,2 30,2 29,3 26,5 10 5 14 8 WNW 1013,2 20 55 0,0
19.07.2017 14:00:00 23,9 17,6 30,7 28,8 26,5 10 5 13 7 WNW 1013,0 20 60 0,0
19.07.2017 13:00:00 23,9 17,9 26,8 28,5 26,5 8 4 10 5 WNW 1013,0 20 41 0,0
19.07.2017 12:00:00 23,0 17,2 25,6 28,4 26,5 5 3 9 5 WNW 1013,0 20 22 0,0
19.07.2017 11:00:00 22,2 17,6 24,2 28,5 26,5 9 5 12 7 NW 1013,0 19 1 0,0
19.07.2017 10:00:00 22,4 18,8 23,0 28,6 26,4 10 5 18 10 NW 1012,5 12 38 0,0

tt = Température de l'air
td = dewpoint
tt 5cm = Température de l'air 5cm
tt -20cm = Température de l'air -20cm
tt -100cm = Température de l'air -100cm
ff = Vitesse du vent
fx = gusts
dd = Direction du vent
ppp = reduced air pressure
vv = visibility
sd = Ensoleillement
rr = Quantités de précipitations

stations d'obs. à proximité